Location: Eexterzandvoort
(53.0303°N, 6.7884°E)
Time: 17:01:22
(UTC+00:00)

Cosmos 2369 - Pass Details

Date: 19 May 2025
Orbit: 840 x 853 km, 71.0° (Epoch: 17 June)

Event Time Altitude Azimuth Distance (km) Brightness Sun altitude
Rises 21:29:19 0° 328° (NNW) 3,417 9.0 -12.5°
Reaches altitude 10° 21:31:47 10° 328° (NNW) 2,477 7.6 -12.7°
Maximum altitude 21:37:29 90° 250° (WSW) 850 3.7 -13.1°
Enters shadow 21:41:38 19° 151° (SSE) 1,898 4.9 -13.4°
